Location: A�t �Alizem
(31.2076°N, 8.7872°W)
Time: 04:44:29
(UTC+00:00)

Nadezhda 3 Rocket - Pass Details

Date: 27 November 2020
Orbit: 956 x 1000 km, 82.9° (Epoch: 25 January)

Event Time Altitude Azimuth Distance (km) Brightness Sun altitude
Rises 19:02:06 0° 177° (S) 3,690 7.2 -18.9°
Reaches altitude 10° 19:04:37 10° 174° (S) 2,749 6.4 -19.4°
Maximum altitude 19:10:53 68° 93° (E) 1,070 3.9 -20.7°
Drops below altitude 10° 19:17:12 10° 12° (NNE) 2,774 6.1 -22.0°
Enters shadow 19:19:24 - 10° (N) 3,595 6.8 -22.5°
